GW3271 Weather Reports


Display with metric or nautical units.
time (UTC)temp
F
wind
direction
speed
MPH
gust
MPH
rain 1hr
in
rain 24hr
in
rain mn
in
humidity
%
barometer
mb
20260904124535 80 232 0.0 2.0 0.00 0.00 0.00 87 1014.4
20260904123034 80 0 0.0 2.0 0.00 0.00 0.00 87 1014.4
20260904121536 80 0 0.0 4.0 0.00 0.00 0.00 87 1014.1
20260904120045 80 0 1.0 5.0 0.00 0.00 0.00 87 1013.9
20260904114532 79 37 2.0 7.0 0.00 0.00 0.00 87 1013.8
20260904113041 80 0 1.0 5.0 0.00 0.00 0.00 86 1013.8
20260904111534 80 147 1.0 5.0 0.00 0.00 0.00 86 1013.7
20260904110036 80 335 0.0 6.0 0.00 0.00 0.00 86 1013.6
20260904104548 80 0 1.0 3.0 0.00 0.00 0.00 85 1013.4
20260904103034 80 0 0.0 3.0 0.00 0.00 0.00 85 1013.3
20260904101535 81 30 0.0 2.0 0.00 0.00 0.00 84 1013.2
20260904100037 81 241 0.0 2.0 0.00 0.00 0.00 84 1013.2
20260904094535 81 220 0.0 3.0 0.00 0.00 0.00 84 1013.2
20260904093032 81 205 1.0 6.0 0.00 0.00 0.00 84 1013.0
20260904091536 81 124 0.0 6.0 0.00 0.00 0.00 84 1013.0
20260904090035 81 255 1.0 5.0 0.00 0.00 0.00 84 1012.9
20260904084536 81 251 0.0 3.0 0.00 0.00 0.00 83 1012.9
20260904083038 81 257 1.0 8.0 0.00 0.00 0.00 83 1012.9
20260904081533 81 248 2.0 6.0 0.00 0.00 0.00 83 1012.9
20260904080036 81 195 1.0 6.0 0.00 0.00 0.00 83 1013.0
20260904074543 81 242 2.0 6.0 0.00 0.00 0.00 83 1013.0
20260904073036 81 250 2.0 7.0 0.00 0.00 0.00 82 1013.2
20260904071543 81 171 2.0 6.0 0.00 0.00 0.00 82 1013.4
20260904070035 82 183 1.0 6.0 0.00 0.00 0.00 81 1013.5
20260904064537 82 156 0.0 6.0 0.00 0.00 0.00 80 1013.6
20260904063036 82 242 1.0 5.0 0.00 0.00 0.00 80 1013.5
20260904061540 82 251 1.0 5.0 0.00 0.00 0.00 79 1013.5
20260904060036 82 0 0.0 4.0 0.00 0.00 0.00 79 1013.7
20260904054540 82 0 1.0 7.0 0.00 0.00 0.00 79 1013.5
20260904053037 81 261 0.0 4.0 0.00 0.00 0.00 79 1013.4
20260904051537 81 0 0.0 4.0 0.00 0.00 0.00 79 1013.5
20260904050032 81 271 1.0 7.0 0.00 0.00 0.00 78 1013.4
20260904044536 81 30 0.0 3.0 0.00 0.00 0.00 79 1013.5
20260904043035 81 262 1.0 6.0 0.00 0.00 0.00 78 1013.3
20260904041535 81 65 1.0 6.0 0.00 0.00 0.00 78 1013.3
20260904040038 81 73 2.0 7.0 0.00 0.00 0.00 78 1013.1
20260904034536 81 85 1.0 7.0 0.00 0.00 0.00 78 1013.1
20260904033034 82 65 2.0 6.0 0.00 0.00 0.00 77 1013.1
20260904031531 82 0 1.0 13.0 0.00 0.00 0.00 76 1013.2
20260904030033 82 46 3.0 8.0 0.00 0.00 0.00 75 1013.1
20260904024534 82 46 4.0 8.0 0.00 0.00 0.00 74 1012.9
20260904023033 83 43 3.0 11.0 0.00 0.00 0.00 73 1012.8
20260904021545 83 356 4.0 11.0 0.00 0.00 0.00 72 1012.7
20260904020033 84 64 5.0 10.0 0.00 0.00 0.00 70 1012.3
20260904014538 84 93 4.0 10.0 0.00 0.00 0.00 68 1012.1
20260904013034 85 75 4.0 12.0 0.00 0.00 0.00 67 1011.7
20260904011548 86 46 3.0 9.0 0.00 0.00 0.00 66 1011.7
20260904010036 86 51 4.0 9.0 0.00 0.00 0.00 66 1011.6
20260904004535 87 75 4.0 15.0 0.00 0.00 0.00 65 1011.6
20260904003034 87 99 3.0 14.0 0.00 0.00 0.00 64 1011.7
20260904001535 88 73 6.0 15.0 0.00 0.00 0.00 64 1011.5
20260904000038 88 283 4.0 14.0 0.00 0.00 0.00 63 1011.5
20260903234536 89 67 4.0 13.0 0.00 0.00 0.00 62 1011.3
20260903233037 89 93 5.0 15.0 0.00 0.00 0.00 63 1011.2
20260903231535 89 86 6.0 16.0 0.00 0.00 0.00 64 1011.2
20260903230038 90 24 8.0 21.0 0.00 0.00 0.00 63 1011.1
20260903224537 93 68 8.0 18.0 0.00 0.00 0.00 56 1010.9
20260903223033 94 90 5.0 16.0 0.00 0.00 0.00 50 1010.5
20260903221536 95 32 3.0 9.0 0.00 0.00 0.00 49 1010.4
20260903220051 97 57 3.0 14.0 0.00 0.00 0.00 48 1010.4
20260903214536 96 74 5.0 13.0 0.00 0.00 0.00 49 1010.6
20260903213036 97 84 3.0 6.0 0.00 0.00 0.00 48 1010.5
20260903211533 97 311 4.0 10.0 0.00 0.00 0.00 45 1010.7
20260903210038 98 92 4.0 10.0 0.00 0.00 0.00 46 1010.9
20260903204536 99 326 1.0 9.0 0.00 0.00 0.00 46 1011.0
20260903203034 98 343 3.0 8.0 0.00 0.00 0.00 47 1011.1
20260903201537 99 256 1.0 6.0 0.00 0.00 0.00 46 1011.3
20260903200034 99 55 1.0 8.0 0.00 0.00 0.00 46 1011.3
20260903194545 100 165 1.0 5.0 0.00 0.00 0.00 43 1011.7
20260903193041 99 313 2.0 7.0 0.00 0.00 0.00 46 1012.0
20260903191532 99 187 2.0 8.0 0.00 0.00 0.00 47 1012.2
20260903190037 100 219 0.0 5.0 0.00 0.00 0.00 47 1012.3
20260903184535 97 286 1.0 5.0 0.00 0.00 0.00 49 1012.6
20260903183035 96 239 0.0 6.0 0.00 0.00 0.00 50 1012.9
20260903181533 96 56 2.0 6.0 0.00 0.00 0.00 51 1013.3
20260903180037 95 0 1.0 7.0 0.00 0.00 0.00 51 1013.3
20260903174533 96 291 1.0 6.0 0.00 0.00 0.00 50 1013.4
20260903173039 94 248 3.0 9.0 0.00 0.00 0.00 55 1013.6
20260903171535 93 269 2.0 9.0 0.00 0.00 0.00 58 1013.8
20260903170035 92 316 2.0 8.0 0.00 0.00 0.00 58 1013.9
20260903164536 93 259 2.0 8.0 0.00 0.00 0.00 59 1013.8
20260903163033 92 269 3.0 9.0 0.00 0.00 0.00 58 1014.0
20260903161538 91 242 3.0 8.0 0.00 0.00 0.00 60 1013.9
20260903160031 90 273 3.0 7.0 0.00 0.00 0.00 63 1013.8
20260903154534 90 228 3.0 8.0 0.00 0.00 0.00 64 1013.8
20260903153034 89 264 1.0 9.0 0.00 0.00 0.00 66 1013.8
20260903151534 88 214 2.0 6.0 0.00 0.00 0.00 68 1013.9
20260903150044 87 248 2.0 7.0 0.00 0.00 0.00 70 1013.9
20260903144541 87 238 1.0 9.0 0.00 0.00 0.00 71 1013.9
20260903143044 86 187 3.0 7.0 0.00 0.00 0.00 72 1013.8
20260903141536 85 236 1.0 7.0 0.00 0.00 0.00 74 1013.9
20260903140035 84 228 2.0 8.0 0.00 0.00 0.00 76 1013.9
20260903134546 83 252 2.0 7.0 0.00 0.00 0.00 78 1014.1
20260903133036 82 243 3.0 9.0 0.00 0.00 0.00 79 1014.1
20260903131535 82 225 1.0 4.0 0.00 0.00 0.00 80 1014.0
20260903130034 82 268 1.0 5.0 0.00 0.00 0.00 81 1014.0